[Iaude] MPEC D69: 2024 BW17 [a=1.02,e=0.16,i=24.3,H=23.5]
    mpec at cfa.harvard.edu 
    mpec at cfa.harvard.edu
       
    Mon Feb 19 09:51:54 EST 2024
    
    
  
M.P.E.C. 2024-D69                             Issued 2024 February 19, 14:50 UT
     The Minor Planet Electronic Circulars contain information on unusual
         minor planets, routine data on comets and natural satellites,
         and occasional editorial announcements.  They are published
    on behalf of Division F of the International Astronomical Union by the
          Minor Planet Center, Smithsonian Astrophysical Observatory,
                          Cambridge, MA 02138, U.S.A.
			  
             Prepared using the Tamkin Foundation Computer Network
                              MPC at CFA.HARVARD.EDU
            URL https://www.minorplanetcenter.net/    ISSN 1523-6714
                                   2024 BW17                                    
Observations:
     K24B17W* C2024 01 21.53507310 03 19.054-05 18 32.37         21.07wXED069F51
     K24B17W  C2024 01 21.56047810 03 10.452-05 22 07.55         21.02wXED069F51
     K24B17W  C2024 01 21.57314810 03 06.168-05 23 54.76         21.15wXED069F51
     K24B17W  C2024 01 21.66185210 02 36.331-05 36 26.97         21.15GVED069F51
     K24B17W  C2024 01 21.66267110 02 36.064-05 36 33.72         20.76GVED069F51
     K24B17W 7C2024 01 24.06295109 48 59.677-11 27 56.98         20.4 GVED069Z84
     K24B17W 7C2024 01 24.06914109 48 57.295-11 28 51.64         21.0 GVED069Z84
     K24B17W 7C2024 01 24.07534209 48 54.909-11 29 48.38         21.0 GVED069Z84
Observer details:
F51 Pan-STARRS 1, Haleakala.  Observers J. Herman, T. Lowe, P. Minguez, A.
    Schultz, I. Smith.  Measurers K. Chambers, T. de Boer, J. Fairlamb, H.
    Gao, M. Huber, C.-C. Lin, E. Magnier, Y. Ramanjooloo, R. Wainscoat, R.
    Weryk.  1.8-m Ritchey-Chretien + CCD.
Z84 Calar Alto-Schmidt.  Observers F. Ocana, R. Kresken, M. Micheli, L.
    Conversi.  Measurers F. Ocana, M. Micheli.  0.8-m f/3 Schmidt + CCD.
Orbital elements:
2024 BW17                                                Earth MOID = 0.1200 AU
Epoch 2024 Mar. 31.0 TT = JDT 2460400.5                 Bell                    
M 310.62690              (2000.0)            P               Q                  
n   0.95241400     Peri.  316.24545     -0.18414192     +0.91578106             
a   1.0231018      Node   300.02116     -0.74959545     -0.36576717             
e   0.1618336      Incl.   24.34917     -0.63576601     +0.16601034             
P   1.03           H   23.55          G   0.15           U   9                  
Residuals in seconds of arc
240121 F51  0.1-  0.1-    240121 F51  0.0   0.1-    240124 Z84  0.0   0.7+
240121 F51  0.0   0.0     240121 F51  0.1+  0.1+    240124 Z84  0.1-  0.2-
240121 F51  0.1+  0.1+    240124 Z84  0.1+  0.4-
Ephemeris:
2024 BW17                a,e,i = 1.02, 0.16, 24                  q = 0.8575
Date    TT    R. A. (2000) Decl.     Delta      r    Elong.  Phase     V
2024 01 20    10 11 05.2 -01 46 46   0.1634  1.1172   142.0    32.9    21.2
...
2024 02 04    08 25 12.9 -37 17 29   0.1561  1.0834   125.3    48.0    21.5
...
2024 02 12    07 12 39.4 -48 26 38   0.1850  1.0634   109.6    61.0    22.2
...
2024 02 18    06 23 46.7 -52 28 37   0.2134  1.0477   100.3    68.1    22.7
2024 02 19    06 16 29.4 -52 54 30   0.2184  1.0450    99.0    69.1    22.8
2024 02 20    06 09 27.8 -53 17 18   0.2235  1.0424    97.7    70.0    22.8
...
2024 02 26    05 32 36.6 -54 44 55   0.2540  1.0261    91.0    74.7    23.2
...
2024 03 05    04 55 17.7 -55 24 58   0.2934  1.0039    83.9    79.2    23.7
...
2024 03 20    04 06 06.5 -55 09 40   0.3563  0.9624    74.3    84.9    24.2
M. P. C. Staff               (C) Copyright 2024 MPC           M.P.E.C. 2024-D69
    
    
More information about the Iaude
mailing list